KF5FGL Weather Reports


Display with metric or nautical units.
time (UTC)temp
F
wind
direction
speed
MPH
gust
MPH
rain 1hr
in
rain 24hr
in
rain mn
in
humidity
%
barometer
mb
20260903053014 84 113 2.0 7.0 0.00 0.00 0.00 76 1011.9
20260903051533 83 141 1.0 8.0 0.00 0.00 0.00 77 1011.6
20260903050020 85 156 1.0 7.0 0.00 0.00 0.00 73 1011.4
20260903044505 86 141 1.0 7.0 0.00 0.00 0.00 72 1011.2
20260903043027 86 139 1.0 9.0 0.00 0.00 0.00 70 1011.1
20260903041514 87 146 2.0 9.0 0.00 0.00 0.00 69 1011.1
20260903040109 88 148 2.0 10.0 0.00 0.00 0.00 66 1011.0
20260903034523 89 141 3.0 10.0 0.00 0.00 0.00 65 1011.0
20260903033013 88 132 3.0 12.0 0.00 0.00 0.00 65 1010.8
20260903031533 89 157 3.0 12.0 0.00 0.00 0.00 64 1010.5
20260903030018 90 154 2.0 6.0 0.00 0.00 0.00 59 1010.2
20260903024507 92 112 1.0 7.0 0.00 0.00 0.00 54 1009.9
20260903023045 92 125 3.0 9.0 0.00 0.00 0.00 49 1009.7
20260903021520 92 161 0.0 1.0 0.00 0.00 0.00 47 1009.3
20260903020007 92 162 0.0 0.0 0.00 0.00 0.00 47 1009.1
20260903014540 94 159 0.0 1.0 0.00 0.00 0.00 45 1008.9
20260903013019 94 172 0.0 2.0 0.00 0.00 0.00 45 1008.9
20260903011506 94 185 0.0 0.0 0.00 0.00 0.00 44 1008.7
20260903010041 96 172 0.0 1.0 0.00 0.00 0.00 42 1008.6
20260903004514 96 176 0.0 0.0 0.00 0.00 0.00 41 1008.6
20260903003003 98 184 0.0 2.0 0.00 0.00 0.00 40 1008.6
20260903001530 98 123 0.0 4.0 0.00 0.00 0.00 39 1008.7
20260903000011 99 156 0.0 2.0 0.00 0.00 0.00 39 1008.8
20260902234625 100 176 0.0 4.0 0.00 0.00 0.00 38 1008.8
20260902233018 100 121 1.0 3.0 0.00 0.00 0.00 38 1008.9
20260902231511 100 179 0.0 3.0 0.00 0.00 0.00 38 1008.9
20260902230025 101 82 0.0 4.0 0.00 0.00 0.00 37 1008.9
20260902224513 102 135 0.0 5.0 0.00 0.00 0.00 37 1008.9
20260902223008 102 183 1.0 5.0 0.00 0.00 0.00 35 1009.0
20260902221527 101 214 1.0 5.0 0.00 0.00 0.00 36 1008.9
20260902220025 99 56 1.0 4.0 0.00 0.00 0.00 37 1009.1
20260902214613 100 141 0.0 4.0 0.00 0.00 0.00 36 1009.3
20260902213020 100 238 2.0 7.0 0.00 0.00 0.00 37 1009.3
20260902211512 99 279 0.0 8.0 0.00 0.00 0.00 37 1009.6
20260902210027 100 124 1.0 4.0 0.00 0.00 0.00 38 1009.8
20260902204514 99 88 1.0 5.0 0.00 0.00 0.00 41 1010.1
20260902203002 101 209 1.0 7.0 0.00 0.00 0.00 40 1010.3
20260902201526 102 41 0.0 4.0 0.00 0.00 0.00 40 1010.5
20260902200005 98 319 2.0 6.0 0.00 0.00 0.00 41 1010.8
20260902194522 98 157 1.0 6.0 0.00 0.00 0.00 44 1011.1
20260902193010 97 270 2.0 4.0 0.00 0.00 0.00 45 1011.4
20260902191532 95 54 0.0 4.0 0.00 0.00 0.00 47 1011.6
20260902190016 100 219 3.0 7.0 0.00 0.00 0.00 40 1011.9
20260902184501 98 322 1.0 8.0 0.00 0.00 0.00 44 1012.2
20260902183022 97 27 0.0 9.0 0.00 0.00 0.00 45 1012.4
20260902181505 96 173 2.0 6.0 0.00 0.00 0.00 50 1012.7
20260902180022 94 206 1.0 7.0 0.00 0.00 0.00 53 1012.8
20260902174509 95 243 3.0 7.0 0.00 0.00 0.00 52 1013.2
20260902173034 94 112 1.0 5.0 0.00 0.00 0.00 54 1013.3
20260902171516 93 147 2.0 6.0 0.00 0.00 0.00 54 1013.6
20260902170005 92 237 0.0 7.0 0.00 0.00 0.00 58 1013.7
20260902164518 92 282 2.0 6.0 0.00 0.00 0.00 59 1013.9
20260902163004 90 342 2.0 5.0 0.00 0.00 0.00 63 1014.0
20260902161536 89 210 1.0 7.0 0.00 0.00 0.00 68 1013.9
20260902160011 89 199 1.0 6.0 0.00 0.00 0.00 67 1014.0
20260902154531 88 253 3.0 7.0 0.00 0.00 0.00 70 1014.0
20260902153012 87 223 3.0 7.0 0.00 0.00 0.00 72 1014.0
20260902151528 86 207 2.0 7.0 0.00 0.00 0.00 75 1014.1
20260902150020 85 230 3.0 9.0 0.00 0.00 0.00 76 1014.0
20260902144535 84 208 1.0 8.0 0.00 0.00 0.00 80 1014.2
20260902143015 83 200 4.0 7.0 0.00 0.00 0.00 81 1014.2
20260902141602 82 236 3.0 7.0 0.00 0.00 0.00 82 1014.2
20260902140030 81 210 3.0 7.0 0.00 0.00 0.00 83 1014.2
20260902134505 80 179 2.0 7.0 0.00 0.00 0.00 84 1014.1
20260902133022 79 205 1.0 6.0 0.00 0.00 0.00 83 1014.0
20260902131508 79 245 0.0 6.0 0.00 0.00 0.00 82 1014.0
20260902130026 78 208 3.0 6.0 0.00 0.00 0.00 82 1013.9
20260902124526 78 213 0.0 6.0 0.00 0.00 0.00 82 1013.6
20260902123030 77 242 0.0 5.0 0.00 0.00 0.00 82 1013.5
20260902121517 77 206 0.0 4.0 0.00 0.00 0.00 82 1013.3
20260902120006 77 214 0.0 4.0 0.00 0.00 0.00 82 1013.3
20260902114550 77 211 0.0 3.0 0.00 0.00 0.00 82 1013.1
20260902113013 78 222 1.0 5.0 0.00 0.00 0.00 83 1013.2
20260902111502 78 207 1.0 5.0 0.00 0.00 0.00 83 1013.0
20260902110035 78 198 1.0 7.0 0.00 0.00 0.00 83 1013.0
20260902104511 78 203 0.0 4.0 0.00 0.00 0.00 84 1013.1
20260902103029 79 186 0.0 5.0 0.00 0.00 0.00 83 1013.0
20260902101517 79 179 1.0 8.0 0.00 0.00 0.00 83 1012.9
20260902100008 78 237 1.0 8.0 0.00 0.00 0.00 83 1012.9
20260902094524 79 195 2.0 6.0 0.00 0.00 0.00 83 1013.0
20260902093012 80 190 2.0 4.0 0.00 0.00 0.00 81 1013.2
20260902091601 79 200 0.0 3.0 0.00 0.00 0.00 82 1013.3
20260902090021 79 158 0.0 4.0 0.00 0.00 0.00 81 1013.3
20260902084521 79 198 0.0 3.0 0.00 0.00 0.00 79 1013.3
20260902083030 80 138 0.0 1.0 0.00 0.00 0.00 78 1013.3
20260902081516 79 179 0.0 0.0 0.00 0.00 0.00 79 1013.4
20260902080004 80 181 0.0 2.0 0.00 0.00 0.00 77 1013.4
20260902074528 81 149 0.0 1.0 0.00 0.00 0.00 75 1013.4
20260902073012 80 187 0.0 4.0 0.00 0.00 0.00 77 1013.4
20260902071532 80 166 1.0 5.0 0.00 0.00 0.00 76 1013.4
20260902070019 81 159 0.0 1.0 0.00 0.00 0.00 75 1013.4
20260902064509 80 141 0.0 0.0 0.00 0.00 0.00 76 1013.4
20260902063027 80 141 0.0 0.0 0.00 0.00 0.00 74 1013.4
20260902061533 82 141 0.0 1.0 0.00 0.00 0.00 71 1013.4
20260902060002 82 130 0.0 4.0 0.00 0.00 0.00 71 1013.4
20260902054534 82 111 0.0 2.0 0.00 0.00 0.00 70 1013.2